• In Belarus
  • List of Countries
  • For 7 days
  • Water Temperature
  • Weather Map
  • Weather Widgets
  • user-avatar
    Login

    Hourly Weather Kapan

    Today, 22 January, Wednesday

    Time Temperature Precipitation Wind Pressure Humidity
    00:00 -1°C° 0 mm 1 mps 688 mmHg 76%
    01:00 -1°C° 0 mm 1 mps 688 mmHg 74%
    02:00 -2°C° 0 mm 1 mps 687 mmHg 71%
    03:00 -1°C° 0 mm 1 mps 687 mmHg 70%
    04:00 -1°C° 0 mm 1 mps 687 mmHg 68%
    05:00 -1°C° 0 mm 1 mps 687 mmHg 67%
    06:00 -2°C° 0 mm 1 mps 687 mmHg 65%
    07:00 -1°C° 0 mm 1 mps 687 mmHg 63%
    08:00 0°C° 0 mm 1 mps 687 mmHg 61%
    09:00 +1°C° 0 mm 1 mps 687 mmHg 59%
    10:00 +2°C° 0 mm 1 mps 687 mmHg 59%
    11:00 +3°C° 0 mm 1 mps 686 mmHg 59%
    12:00 +3°C° 0 mm 2 mps 686 mmHg 58%
    13:00 +3°C° 0 mm 2 mps 686 mmHg 59%
    14:00 +3°C° 0 mm 2 mps 685 mmHg 60%
    15:00 +4°C° 0 mm 2 mps 685 mmHg 61%
    16:00 +2°C° 0 mm 2 mps 685 mmHg 64%
    17:00 +2°C° 0 mm 1 mps 685 mmHg 67%
    18:00 +1°C° 0 mm 1 mps 685 mmHg 70%
    19:00 +1°C° 0 mm 1 mps 685 mmHg 68%
    20:00 0°C° 0 mm 1 mps 684 mmHg 67%
    21:00 0°C° 0 mm 1 mps 684 mmHg 65%
    22:00 0°C° 0 mm 1 mps 684 mmHg 64%
    23:00 0°C° 0 mm 1 mps 683 mmHg 64%

    Tomorrow, 23 January, Thursday

    Time Temperature Precipitation Wind Pressure Humidity
    00:00 -2°C° 0 mm 2 mps 683 mmHg 63%
    01:00 -2°C° 0 mm 2 mps 683 mmHg 61%
    02:00 -2°C° 0 mm 2 mps 682 mmHg 60%
    03:00 -2°C° 0 mm 2 mps 682 mmHg 58%
    04:00 -3°C° 0 mm 2 mps 681 mmHg 56%
    05:00 -3°C° 0 mm 2 mps 681 mmHg 54%
    06:00 -4°C° 0 mm 3 mps 681 mmHg 52%
    07:00 -2°C° 0 mm 3 mps 681 mmHg 51%
    08:00 -1°C° 0 mm 3 mps 681 mmHg 49%
    09:00 0°C° 0 mm 3 mps 681 mmHg 48%
    10:00 +1°C° 0 mm 3 mps 680 mmHg 47%
    11:00 +2°C° 0 mm 3 mps 680 mmHg 47%
    12:00 +3°C° 0 mm 3 mps 679 mmHg 47%
    13:00 +4°C° 0 mm 3 mps 679 mmHg 48%
    14:00 +4°C° 0 mm 3 mps 678 mmHg 48%
    15:00 +4°C° 0 mm 3 mps 678 mmHg 49%
    16:00 +2°C° 0 mm 3 mps 678 mmHg 51%
    17:00 +1°C° 0 mm 3 mps 678 mmHg 53%
    18:00 -1°C° 0 mm 3 mps 678 mmHg 55%
    19:00 -1°C° 0 mm 3 mps 678 mmHg 56%
    20:00 -1°C° 0 mm 3 mps 679 mmHg 56%
    21:00 -1°C° 0 mm 3 mps 679 mmHg 57%
    22:00 -1°C° 0 mm 3 mps 679 mmHg 58%
    23:00 -1°C° 0 mm 3 mps 679 mmHg 60%

    Day after tomorrow, 24 January, Friday

    Time Temperature Precipitation Wind Pressure Humidity
    00:00 -1°C° 0 mm 3 mps 679 mmHg 61%
    01:00 -1°C° 0 mm 2 mps 679 mmHg 63%
    02:00 -1°C° 0 mm 2 mps 679 mmHg 64%
    03:00 -1°C° 0 mm 2 mps 680 mmHg 66%
    04:00 +1°C° 0.2 mm 1 mps 680 mmHg 72%
    05:00 +1°C° 0.2 mm 1 mps 680 mmHg 78%
    06:00 0°C° 0.2 mm 1 mps 680 mmHg 85%
    07:00 0°C° 0.4 mm 1 mps 681 mmHg 87%
    08:00 0°C° 0.4 mm 1 mps 681 mmHg 90%
    09:00 0°C° 0.4 mm 1 mps 682 mmHg 93%
    10:00 +1°C° 0.8 mm 1 mps 682 mmHg 93%
    11:00 -1°C° 0.8 mm 2 mps 682 mmHg 94%
    12:00 -1°C° 0.8 mm 3 mps 682 mmHg 94%
    13:00 -2°C° 1.3 mm 3 mps 682 mmHg 94%
    14:00 -4°C° 1.3 mm 3 mps 682 mmHg 94%
    15:00 -5°C° 1.3 mm 3 mps 682 mmHg 94%
    16:00 -4°C° 0.4 mm 2 mps 683 mmHg 94%
    17:00 -2°C° 0.4 mm 1 mps 684 mmHg 94%
    18:00 -3°C° 0.4 mm 1 mps 684 mmHg 95%
    19:00 -3°C° 0.2 mm 1 mps 685 mmHg 94%
    20:00 -3°C° 0.2 mm 1 mps 686 mmHg 94%
    21:00 -4°C° 0.2 mm 0 mps 687 mmHg 94%
    22:00 -5°C° 0.1 mm 0 mps 687 mmHg 94%
    23:00 -4°C° 0.1 mm 1 mps 688 mmHg 94%

    25 January, Saturday

    Time Temperature Precipitation Wind Pressure Humidity
    00:00 -4°C° 0.1 mm 1 mps 688 mmHg 94%
    01:00 -4°C° 0.1 mm 1 mps 688 mmHg 92%
    02:00 -6°C° 0.1 mm 1 mps 689 mmHg 91%
    03:00 -7°C° 0.1 mm 1 mps 689 mmHg 89%
    04:00 -7°C° 0 mm 1 mps 689 mmHg 85%
    05:00 -7°C° 0 mm 1 mps 689 mmHg 81%
    06:00 -9°C° 0 mm 2 mps 689 mmHg 77%
    07:00 -6°C° 0 mm 1 mps 690 mmHg 75%
    08:00 -4°C° 0 mm 1 mps 691 mmHg 72%
    09:00 -3°C° 0 mm 1 mps 691 mmHg 69%
    10:00 -2°C° 0 mm 1 mps 691 mmHg 69%
    11:00 -1°C° 0 mm 1 mps 691 mmHg 70%
    12:00 0°C° 0 mm 1 mps 690 mmHg 70%
    13:00 0°C° 0 mm 1 mps 690 mmHg 72%
    14:00 0°C° 0 mm 1 mps 690 mmHg 73%
    15:00 0°C° 0 mm 1 mps 689 mmHg 75%
    16:00 -3°C° 0 mm 2 mps 689 mmHg 72%
    17:00 -4°C° 0 mm 2 mps 689 mmHg 69%
    18:00 -6°C° 0 mm 2 mps 689 mmHg 66%
    19:00 -6°C° 0 mm 2 mps 689 mmHg 62%
    20:00 -6°C° 0 mm 2 mps 689 mmHg 58%
    21:00 -7°C° 0 mm 3 mps 689 mmHg 54%
    22:00 -7°C° 0 mm 3 mps 689 mmHg 55%
    23:00 -6°C° 0 mm 3 mps 688 mmHg 55%

    26 January, Sunday

    Time Temperature Precipitation Wind Pressure Humidity
    00:00 -6°C° 0 mm 3 mps 688 mmHg 56%
    01:00 -6°C° 0 mm 3 mps 688 mmHg 55%
    02:00 -6°C° 0 mm 3 mps 688 mmHg 55%
    03:00 -6°C° 0 mm 3 mps 688 mmHg 55%
    04:00 -6°C° 0 mm 3 mps 688 mmHg 55%
    05:00 -6°C° 0 mm 3 mps 688 mmHg 55%
    06:00 -6°C° 0 mm 3 mps 688 mmHg 55%
    07:00 -4°C° 0 mm 3 mps 688 mmHg 57%
    08:00 -2°C° 0 mm 3 mps 689 mmHg 59%
    09:00 -1°C° 0 mm 2 mps 689 mmHg 61%
    10:00 +1°C° 0 mm 2 mps 689 mmHg 64%
    11:00 +2°C° 0 mm 2 mps 689 mmHg 67%
    12:00 +3°C° 0 mm 2 mps 688 mmHg 69%
    13:00 +3°C° 0 mm 2 mps 688 mmHg 70%
    14:00 +3°C° 0 mm 2 mps 688 mmHg 71%
    15:00 +3°C° 0 mm 2 mps 687 mmHg 71%
    16:00 +2°C° 0 mm 2 mps 687 mmHg 67%
    17:00 0°C° 0 mm 3 mps 687 mmHg 62%
    18:00 -2°C° 0 mm 3 mps 687 mmHg 57%
    19:00 -2°C° 0 mm 3 mps 687 mmHg 55%
    20:00 -2°C° 0 mm 3 mps 687 mmHg 54%
    21:00 -2°C° 0 mm 3 mps 687 mmHg 52%
    22:00 -2°C° 0 mm 3 mps 687 mmHg 52%
    23:00 -2°C° 0 mm 3 mps 687 mmHg 52%

    27 January, Monday

    Time Temperature Precipitation Wind Pressure Humidity
    00:00 -2°C° 0 mm 2 mps 687 mmHg 51%
    01:00 -2°C° 0 mm 2 mps 687 mmHg 52%
    02:00 -2°C° 0 mm 2 mps 687 mmHg 53%
    03:00 -2°C° 0 mm 2 mps 688 mmHg 53%
    04:00 -3°C° 0 mm 2 mps 688 mmHg 54%
    05:00 -3°C° 0 mm 2 mps 688 mmHg 54%
    06:00 -3°C° 0 mm 2 mps 688 mmHg 54%
    07:00 0°C° 0 mm 1 mps 689 mmHg 55%
    08:00 +1°C° 0 mm 1 mps 690 mmHg 57%
    09:00 +2°C° 0 mm 1 mps 690 mmHg 58%
    10:00 +3°C° 0 mm 1 mps 690 mmHg 58%
    11:00 +4°C° 0 mm 1 mps 690 mmHg 59%
    12:00 +5°C° 0 mm 1 mps 690 mmHg 59%
    13:00 +5°C° 0 mm 1 mps 690 mmHg 61%
    14:00 +5°C° 0 mm 1 mps 690 mmHg 63%
    15:00 +5°C° 0 mm 1 mps 690 mmHg 64%
    16:00 +3°C° 0 mm 1 mps 690 mmHg 67%
    17:00 +2°C° 0 mm 1 mps 690 mmHg 69%
    18:00 +1°C° 0 mm 1 mps 690 mmHg 72%
    19:00 +1°C° 0 mm 1 mps 690 mmHg 69%
    20:00 +1°C° 0 mm 1 mps 690 mmHg 67%
    21:00 0°C° 0 mm 1 mps 690 mmHg 65%
    22:00 0°C° 0 mm 1 mps 690 mmHg 63%
    23:00 0°C° 0 mm 1 mps 690 mmHg 61%
    Show more